Terminal Aerodrome Forecast
Issued by NWS Sioux Falls, SD

Home | Current Version | Previous Version | Graphics & Text | Print | Product List | Glossary Off
Versions: 1 2 3 4 5 6 7 8 9 10 11 12 13 14 15 16 17 18 19 20 21 22

000
FTUS43 KFSD 151731 AAB
TAFSUX
TAF AMD
KSUX 151731Z 1518/1618 13010KT P6SM VCTS BKN020 OVC060CB
     FM152000 14010KT P6SM BKN060
     FM160300 13009KT P6SM SHRA VCTS OVC090CB
     FM161000 12007KT 6SM SHRA BR OVC015
     FM161600 19005KT P6SM SHRA OVC020=

USA.gov is the U.S. government's official web portal to all federal, state and local government web resources and services.